Location: Poughquag
(41.6090°N, 73.6820°W)
Time: 14:53:11
(UTC-04:00)

Vanguard 2 - Pass Details

Date: 04 June 2020
Orbit: 552 x 2938 km, 32.9° (Epoch: 06 July)

Event Time Altitude Azimuth Distance (km) Brightness Sun altitude
Rises 21:12:35 0° 264° (W) 6,004 12.8 -8.0°
Reaches altitude 10° 21:17:14 10° 260° (W) 4,639 12.1 -8.7°
Maximum altitude 21:28:28 48° 192° (SSW) 1,836 9.2 -10.2°
Enters shadow 21:34:42 13° 122° (ESE) 2,692 9.7 -11.1°
Drops below altitude 10° 21:35:17 10° 120° (ESE) 2,862 - -11.1°
Sets 21:37:31 0° 114° (ESE) 3,580 - -11.4°
